Terminal Aerodrome Forecast
Issued by NWS Austin/San Antonio, TX

Home | Current Version | Previous Version | Text Only | Print | Product List | Glossary On
Versions: 1 2 3 4 5 6 7 8 9 10 11 12 13 14 15 16 17 18 19 20 21 22 23
000
FTUS44 KEWX 222300
TAFAUS
TAF
KAUS 222320Z 2300/2406 07005KT P6SM SCT250
      TEMPO 2310/2313 5SM BR=

USA.gov is the U.S. government's official web portal to all federal, state and local government web resources and services.